Location: Asheville, NC
(35.6000°N, 82.5500°W)
Time: 00:33:01
(UTC-04:00)

Vanguard 1 Rocket - Pass Details

Date: 11 March 2018
Orbit: 653 x 4224 km, 34.3° (Epoch: 18 June)

Event Time Altitude Azimuth Distance (km) Brightness Sun altitude
Rises 23:45:29 0° 283° (WNW) 5,886 11.8 -55.7°
Reaches altitude 10° 23:48:40 10° 281° (W) 5,248 11.4 -56.0°
Enters shadow 23:57:19 43° 267° (W) 4,029 10.4 -56.6°
Exits shadow 00:36:11 - 126° (SE) 8,048 12.0 -58.1°
Sets 00:37:27 0° 126° (SE) 8,248 12.1 -58.1°
